• In Netherlands
  • List of Countries
  • For 7 days
  • Water Temperature
  • Satellite Maps
  • Weather Map
  • Weather Widgets
  • user-avatar
    Login

    Hourly Weather Haradok

    Today, 24 June, Saturday

    Time Temperature Precipitation Wind Pressure Humidity
    00:00 +8°C° 0 mm 2 mps 741 mmHg 88%
    01:00 +8°C° 0 mm 1 mps 741 mmHg 88%
    02:00 +7°C° 0 mm 1 mps 742 mmHg 90%
    03:00 +8°C° 0 mm 1 mps 742 mmHg 89%
    04:00 +9°C° 0 mm 1 mps 742 mmHg 88%
    05:00 +11°C° 0 mm 1 mps 742 mmHg 86%
    06:00 +13°C° 0 mm 1 mps 742 mmHg 81%
    07:00 +14°C° 0 mm 1 mps 742 mmHg 75%
    08:00 +17°C° 0 mm 2 mps 742 mmHg 69%
    09:00 +18°C° 0 mm 2 mps 742 mmHg 65%
    10:00 +19°C° 0 mm 2 mps 741 mmHg 62%
    11:00 +20°C° 0 mm 2 mps 741 mmHg 58%
    12:00 +20°C° 0.1 mm 3 mps 741 mmHg 60%
    13:00 +20°C° 0.1 mm 3 mps 741 mmHg 62%
    14:00 +20°C° 0.1 mm 3 mps 741 mmHg 64%
    15:00 +20°C° 0.3 mm 3 mps 741 mmHg 70%
    16:00 +19°C° 0.3 mm 3 mps 740 mmHg 77%
    17:00 +18°C° 0.3 mm 3 mps 740 mmHg 83%
    18:00 +18°C° 0.3 mm 3 mps 740 mmHg 87%
    19:00 +17°C° 0.3 mm 3 mps 740 mmHg 91%
    20:00 +16°C° 0.3 mm 3 mps 740 mmHg 96%
    21:00 +14°C° 0.4 mm 3 mps 740 mmHg 96%
    22:00 +14°C° 0.4 mm 3 mps 740 mmHg 96%
    23:00 +14°C° 0.4 mm 4 mps 740 mmHg 97%

    Tomorrow, 25 June, Sunday

    Time Temperature Precipitation Wind Pressure Humidity
    00:00 +14°C° 0 mm 4 mps 740 mmHg 97%
    01:00 +13°C° 0 mm 4 mps 740 mmHg 97%
    02:00 +13°C° 0 mm 4 mps 740 mmHg 97%
    03:00 +13°C° 0 mm 4 mps 740 mmHg 97%
    04:00 +13°C° 0 mm 4 mps 740 mmHg 96%
    05:00 +14°C° 0 mm 4 mps 740 mmHg 96%
    06:00 +14°C° 0.2 mm 4 mps 740 mmHg 96%
    07:00 +14°C° 0.2 mm 4 mps 740 mmHg 95%
    08:00 +14°C° 0.2 mm 4 mps 740 mmHg 95%
    09:00 +15°C° 0.2 mm 5 mps 741 mmHg 92%
    10:00 +16°C° 0.2 mm 5 mps 741 mmHg 90%
    11:00 +17°C° 0.2 mm 6 mps 741 mmHg 88%
    12:00 +17°C° 0.2 mm 6 mps 741 mmHg 82%
    13:00 +18°C° 0.2 mm 7 mps 741 mmHg 77%
    14:00 +20°C° 0.2 mm 7 mps 741 mmHg 71%
    15:00 +20°C° 0.1 mm 7 mps 741 mmHg 71%
    16:00 +20°C° 0.1 mm 7 mps 741 mmHg 70%
    17:00 +19°C° 0.1 mm 6 mps 741 mmHg 70%
    18:00 +17°C° 0 mm 5 mps 742 mmHg 74%
    19:00 +17°C° 0 mm 4 mps 742 mmHg 79%
    20:00 +14°C° 0 mm 3 mps 742 mmHg 84%
    21:00 +14°C° 0 mm 2 mps 742 mmHg 86%
    22:00 +13°C° 0 mm 2 mps 742 mmHg 89%
    23:00 +12°C° 0 mm 2 mps 742 mmHg 91%

    Day after tomorrow, 26 June, Monday

    Time Temperature Precipitation Wind Pressure Humidity
    00:00 +12°C° 0 mm 3 mps 742 mmHg 92%
    01:00 +12°C° 0 mm 3 mps 742 mmHg 92%
    02:00 +12°C° 0 mm 4 mps 741 mmHg 92%
    03:00 +13°C° 0.2 mm 4 mps 741 mmHg 92%
    04:00 +14°C° 0.2 mm 5 mps 740 mmHg 91%
    05:00 +15°C° 0.2 mm 5 mps 740 mmHg 90%
    06:00 +16°C° 0.3 mm 5 mps 740 mmHg 89%
    07:00 +17°C° 0.3 mm 6 mps 740 mmHg 88%
    08:00 +19°C° 0.3 mm 6 mps 739 mmHg 87%
    09:00 +19°C° 0.4 mm 6 mps 739 mmHg 87%
    10:00 +20°C° 0.4 mm 6 mps 739 mmHg 86%
    11:00 +20°C° 0.4 mm 6 mps 738 mmHg 85%
    12:00 +21°C° 0.8 mm 6 mps 738 mmHg 84%
    13:00 +21°C° 0.8 mm 7 mps 738 mmHg 82%
    14:00 +21°C° 0.8 mm 8 mps 737 mmHg 81%
    15:00 +21°C° 0.5 mm 7 mps 737 mmHg 82%
    16:00 +20°C° 0.5 mm 7 mps 737 mmHg 84%
    17:00 +19°C° 0.5 mm 6 mps 737 mmHg 85%
    18:00 +17°C° 0.1 mm 6 mps 738 mmHg 85%
    19:00 +16°C° 0.1 mm 5 mps 738 mmHg 85%
    20:00 +14°C° 0.1 mm 4 mps 739 mmHg 85%
    21:00 +14°C° 0 mm 4 mps 739 mmHg 84%
    22:00 +13°C° 0 mm 5 mps 739 mmHg 83%
    23:00 +12°C° 0 mm 5 mps 740 mmHg 82%

    27 June, Tuesday

    Time Temperature Precipitation Wind Pressure Humidity
    00:00 +10°C° 0 mm 5 mps 740 mmHg 84%
    01:00 +10°C° 0 mm 5 mps 740 mmHg 85%
    02:00 +9°C° 0 mm 5 mps 741 mmHg 87%
    03:00 +9°C° 0 mm 5 mps 741 mmHg 87%
    04:00 +10°C° 0 mm 5 mps 741 mmHg 88%
    05:00 +10°C° 0 mm 5 mps 742 mmHg 88%
    06:00 +11°C° 0 mm 6 mps 742 mmHg 84%
    07:00 +14°C° 0 mm 6 mps 742 mmHg 80%
    08:00 +15°C° 0 mm 6 mps 743 mmHg 75%
    09:00 +16°C° 0 mm 7 mps 743 mmHg 71%
    10:00 +17°C° 0 mm 8 mps 743 mmHg 66%
    11:00 +18°C° 0 mm 8 mps 743 mmHg 61%
    12:00 +18°C° 0 mm 8 mps 743 mmHg 62%
    13:00 +18°C° 0 mm 8 mps 744 mmHg 62%
    14:00 +18°C° 0 mm 8 mps 744 mmHg 63%
    15:00 +18°C° 0 mm 8 mps 744 mmHg 63%
    16:00 +18°C° 0 mm 7 mps 744 mmHg 64%
    17:00 +17°C° 0 mm 7 mps 744 mmHg 65%
    18:00 +16°C° 0 mm 5 mps 744 mmHg 70%
    19:00 +15°C° 0 mm 4 mps 745 mmHg 76%
    20:00 +14°C° 0 mm 3 mps 745 mmHg 81%
    21:00 +13°C° 0 mm 3 mps 745 mmHg 84%
    22:00 +12°C° 0 mm 3 mps 745 mmHg 87%
    23:00 +11°C° 0 mm 3 mps 746 mmHg 91%

    28 June, Wednesday

    Time Temperature Precipitation Wind Pressure Humidity
    00:00 +10°C° 0 mm 3 mps 746 mmHg 91%
    01:00 +10°C° 0 mm 3 mps 746 mmHg 92%
    02:00 +9°C° 0 mm 3 mps 746 mmHg 93%
    03:00 +9°C° 0 mm 3 mps 747 mmHg 92%
    04:00 +10°C° 0 mm 2 mps 747 mmHg 91%
    05:00 +10°C° 0 mm 2 mps 747 mmHg 90%
    06:00 +12°C° 0 mm 2 mps 747 mmHg 83%
    07:00 +14°C° 0 mm 2 mps 748 mmHg 75%
    08:00 +16°C° 0 mm 2 mps 748 mmHg 68%
    09:00 +17°C° 0 mm 2 mps 748 mmHg 64%
    10:00 +18°C° 0 mm 2 mps 748 mmHg 60%
    11:00 +19°C° 0 mm 2 mps 748 mmHg 56%
    12:00 +20°C° 0 mm 2 mps 748 mmHg 55%
    13:00 +20°C° 0 mm 2 mps 748 mmHg 54%
    14:00 +21°C° 0 mm 2 mps 748 mmHg 52%
    15:00 +21°C° 0 mm 2 mps 748 mmHg 54%
    16:00 +21°C° 0 mm 2 mps 748 mmHg 55%
    17:00 +21°C° 0 mm 2 mps 748 mmHg 56%
    18:00 +19°C° 0 mm 2 mps 748 mmHg 64%
    19:00 +18°C° 0 mm 1 mps 748 mmHg 71%
    20:00 +16°C° 0 mm 1 mps 748 mmHg 79%
    21:00 +15°C° 0 mm 2 mps 748 mmHg 80%
    22:00 +14°C° 0 mm 2 mps 748 mmHg 82%
    23:00 +13°C° 0 mm 2 mps 748 mmHg 83%

    29 June, Thursday

    Time Temperature Precipitation Wind Pressure Humidity
    00:00 +13°C° 0 mm 2 mps 748 mmHg 85%
    01:00 +12°C° 0 mm 3 mps 747 mmHg 86%
    02:00 +11°C° 0 mm 3 mps 747 mmHg 87%
    03:00 +12°C° 0 mm 3 mps 747 mmHg 86%
    04:00 +12°C° 0 mm 3 mps 747 mmHg 86%
    05:00 +13°C° 0 mm 3 mps 747 mmHg 86%
    06:00 +14°C° 0 mm 3 mps 747 mmHg 84%
    07:00 +17°C° 0 mm 4 mps 747 mmHg 82%
    08:00 +18°C° 0 mm 4 mps 747 mmHg 80%
    09:00 +20°C° 0 mm 4 mps 747 mmHg 78%
    10:00 +21°C° 0 mm 4 mps 746 mmHg 76%
    11:00 +23°C° 0 mm 4 mps 746 mmHg 74%
    12:00 +25°C° 0.3 mm 4 mps 746 mmHg 72%
    13:00 +27°C° 0.3 mm 4 mps 746 mmHg 70%
    14:00 +28°C° 0.3 mm 4 mps 745 mmHg 68%
    15:00 +28°C° 0.9 mm 3 mps 745 mmHg 71%
    16:00 +27°C° 0.9 mm 3 mps 745 mmHg 73%
    17:00 +27°C° 0.9 mm 2 mps 745 mmHg 76%
    18:00 +26°C° 0.4 mm 2 mps 744 mmHg 81%
    19:00 +25°C° 0.4 mm 3 mps 744 mmHg 86%
    20:00 +22°C° 0.4 mm 3 mps 744 mmHg 91%
    21:00 +22°C° 0 mm 3 mps 744 mmHg 92%
    22:00 +21°C° 0 mm 3 mps 744 mmHg 93%
    23:00 +20°C° 0 mm 2 mps 744 mmHg 94%
    Show more